Retour au catalogue

STARLINK-5123

ActifCommunicationsVLEO
NORAD 53979·PAYLOAD·🇺🇸 United States

Lancé Oct 5, 2022 depuis Vandenberg Space Force Base

Loading…

Prochains Passages (prochaines 24 heures)

TLE

FraisSource: CelesTrak SupGP

Époque: Sep 14, 2026, 21:49 UTC

1 53979C 22125R   26257.90951389  .00019067  00000+0  61315-3 0  2579
2 53979  53.1600  83.8222 0001265  78.3474 252.0788 15.31692022    16

Suivez STARLINK-5123 en temps réel avec AllMySat

Download on the App Store